Regional Weather Roundup
Issued by NWS

Home | Current Version | Previous Version | Text Only | Print | Product List | Glossary Off
Versions: 1 2 3 4 5 6 7 8 9 10 11 12 13 14 15 16 17 18 19 20 21 22 23 24 25 26 27 28

000
ASUS45 KSLC 300410
RWRUT

UTAH REGIONAL WEATHER ROUNDUP
NATIONAL WEATHER SERVICE SALT LAKE CITY UT
1000 PM MDT FRI JUL 29 2016

UTZ001>011-023>025-300500-

NORTHERN UTAH

CITY           SKY/WX    TMP DP  RH WIND       PRES   REMARKS
BRIGHAM CITY     N/A     84  44  24 NE3       29.96R
HILL AFB       CLEAR     82  43  25 E7        30.00R
LOGAN          CLEAR     78  46  32 S6        29.97R
OGDEN          CLEAR     83  45  26 SE3       29.96R
PROVO AIRPORT  PTCLDY    84  45  24 E5        29.97R
SALT LAKE CITY PTCLDY    88  39  17 SE5       29.94R
VERNAL         CLEAR     77  42  28 W5        30.01R
WENDOVER       MOCLDY    88  39  18 NW6       29.96S
HEBER CITY     CLEAR     64  43  45 E6        30.06R
WEST JORDAN    CLEAR     81  36  19 SW7       29.99R

$$

UTZ012>022-026-027-300500-

SOUTHERN/CENTRAL UTAH

CITY           SKY/WX    TMP DP  RH WIND       PRES   REMARKS
BLANDING       MOCLDY    81  30  15 CALM      30.13R
BRYCE CANYON   MOCLDY    65  37  35 CALM      30.29R
CEDAR CITY     CLOUDY    78  44  29 S3        30.15S
DELTA          MOCLDY    81  36  19 S8        30.01R
MILFORD        CLOUDY    85  43  22 VRB7      30.04R
MOAB/CYNLANDS  PTCLDY    90  32  12 N3        29.94R
PRICE          PTCLDY    85  33  15 NW7       30.07R
ST GEORGE      CLEAR     93  50  22 E16       29.92R HX  90

$$

REGIONAL REPORTS     COLORADO/ARIZONA

CITY           SKY/WX    TMP DP  RH WIND       PRES   REMARKS
CRAIG, CO      CLEAR     64  41  42 S5        30.09R
GRAND JUNCTION CLOUDY    80  37  21 NE6       29.97R
RIFLE          CLEAR     77  36  22 SE9       30.04R
MONTROSE       CLOUDY    78  38  23 SE9       30.09R
CORTEZ         CLEAR     73  40  30 NE5       30.07R
PAGE, AZ       MOCLDY    92  39  15 VRB3      29.95R
GRAND CANYON   MOCLDY    65  52  62 NE3       30.24R
KINGMAN        MOCLDY    96  53  23 S14       29.91R HX  93
FLAGSTAFF      CLOUDY    67  47  48 SW9       30.26R

$$

REGIONAL REPORTS    NEVADA/IDAHO/WYOMING

CITY           SKY/WX    TMP DP  RH WIND       PRES   REMARKS
LAS VEGAS, NV  MOCLDY   106  40  10 N15       29.73R HX 100
ELY            MOCLDY    72  47  40 SE14      30.16S
ELKO           MOCLDY    87  35  15 CALM      30.00R
POCATELLO, ID  CLEAR     81  36  19 S12       29.94R
BURLEY         CLEAR     71  52  50 SW6       29.91R
EVANSTON, WY   CLEAR     74  30  19 W9        30.21R
ROCK SPRINGS   CLEAR     76  23  14 W13       30.14R
KEMMERER         N/A    N/A N/A N/A N7        30.21R

$$




USA.gov is the U.S. government's official web portal to all federal, state and local government web resources and services.